Air temperature 10.1° C
Dewpoint 6.1° C

Last reported at 2014-Apr-23 13:00 UTC.
Time now 2014-Apr-23 15:24 UTC

Location: N 61°12' E 001°06'.
View on Google Maps.

See reports from other nearby stations

Tides Stations Pressure Air Temp Water Temp Dewpoint Dewpoint depression Visibility Wind Speed Wind Dir Waves Ship positions

  
sailing weather and tide predictions

Current Weather: station 63103

date/time (UTC)wind fromknots sea level pressurealtimeterstation pressurevisibilityair tempwater tempwave heightnotes
2014-Apr-23 13:00 10.1
2014-Apr-23 12:00 10.5 2.1
2014-Apr-23 11:00 11.3 2.3
2014-Apr-23 10:00 11.6 2.0
2014-Apr-23 09:00 11.2 2.2
2014-Apr-23 08:00 11.0 2.5
2014-Apr-23 07:00 120 20 11.6 2.5
2014-Apr-23 06:00 120 19 11.0 2.4
2014-Apr-23 05:00 9.3 2.6
2014-Apr-23 04:00 8.3 2.6
2014-Apr-23 03:00 8.2 3.0
2014-Apr-23 02:00 8.3 2.8
2014-Apr-23 01:00 8.2 2.8
2014-Apr-23 00:00 8.3 2.6
2014-Apr-22 23:00 8.3 2.8
2014-Apr-22 22:00 8.2 2.8
2014-Apr-22 21:00 8.3 2.7
2014-Apr-22 20:00 8.2 2.7
2014-Apr-22 19:00 8.6 2.9
2014-Apr-22 18:00 9.1 2.9
2014-Apr-22 17:00 9.2 2.8
2014-Apr-22 16:00 9.4 3.0
2014-Apr-22 15:00 9.2 3.0
2014-Apr-22 14:00 9.5 3.0
2014-Apr-22 13:00 9.2 2.9
2014-Apr-22 12:00 9.3 3.0
2014-Apr-22 11:00 9.1 2.9
2014-Apr-22 10:00 9.0 2.8
2014-Apr-22 09:00 9.1 2.5
2014-Apr-22 08:00 9.4 2.6
2014-Apr-22 07:00 9.0 2.2
2014-Apr-22 06:00 7.9 2.3
2014-Apr-22 05:00 8.0 2.1
2014-Apr-22 04:00 8.4 2.2
2014-Apr-22 03:00 8.5 2.0
2014-Apr-22 02:00 8.2 2.0
2014-Apr-22 01:00 040 20 8.2 1.8
2014-Apr-22 00:00 050 20 7.9 1.8
2014-Apr-21 23:00 040 20 8.0 1.6
2014-Apr-21 22:00 040 18 8.1 1.6
2014-Apr-21 21:00 040 19 8.2 1.6
2014-Apr-21 20:00 040 18 8.1 1.6
2014-Apr-21 19:00 040 17 8.0 1.5
2014-Apr-21 18:00 040 15 7.9 1.4
2014-Apr-21 17:00 040 13 8.3 1.3
2014-Apr-21 16:00 050 12 8.4 1.4
2014-Apr-21 15:00 040 12 8.6 1.5